Starlink 31462

operational
NORAD ID: 59466 Int'l Des: 2024-068 Owner: SPXS Country: US Constellation: starlink
LEOCIRCULAR

Starlink 31462について

説明を読み込み中...

リアルタイム位置

3D地球を読み込み中...

次回通過

高度履歴

Altitude vs Time

uPlot chart will show altitude changes over time

軌道要素

1 59466U 24068M 25304.61710144 .00006601 00000-0 24912-3 0 9992
2 59466 43.0015 43.3575 0001154 286.2158 73.8567 15.27587881 88784
Epoch: Oct 31, 2025 • Age: 9 hours

現在のステータス

高度 493.9 km
速度 7.62 km/s
衛星直下点 -39.12°S, 58.45°W
打ち上げ日 Apr 10, 2024
運用期間 1.5 years
タイプ internet

技術仕様

分類 Payload
質量 730.00 kg
乾燥質量 700.00 kg
総質量 730.00 kg
長さ 0.30 m
直径 4.10 m
スパン 29.00 m
形状 Box + pan
製造者 SPXS
バスタイプ Starlink V2M
フェーズステータス In Orbit
所有者/国 SPXS/US

大規模コンステレーション

Loading constellations...